Home > Weather > Macapá > Past weeks

Flag for Brazil Past Weather in Macapá, Amapá, Brazil — Yesterday and Last 2 Weeks

Now
77 °F

Passing clouds.


Feels Like: 78 °F
Forecast: 78 / 94 °F
Wind: 3 mph from Northwest

Location: Macapa Airport

Current Time: Jul 24, 2016 at 7:49:48 AM

Latest Report: Jul 24, 2016 at 7:00 AM


Visibility: N/A

Pressure: 29.92 "Hg

Humidity: 100%

Dew Point: 77 °F

Location of MacapáLocation

Past Weather in Macapá — Graph

°F

Macapá Temperature Yesterday

Maximum temperature yesterday: 95 °F (at 1:00 PM)
Minimum temperature yesterday: 77 °F (at 4:00 AM)
Average temperature yesterday: 85 °F

High & Low Weather Summary for the Past Weeks

 TemperatureHumidityPressure
High97 °F (Jul 14, 3:00 PM)100% (Jul 9, 6:00 AM)30.01 "Hg (Jul 9, 6:00 AM)
Low75 °F (Jul 15, 10:00 PM)18% (Jul 10, 2:00 PM)29.77 "Hg (Jul 15, 4:00 PM)
Average85 °F78%29.91 "Hg
* Reported Jul 9 6:00 AM — Jul 24 6:00 AM, Macapá, Weather by CustomWeather, © 2016

Note: Actual official high and low records may vary slightly from our data, if they occured in-between our weather recording intervals... More about our weather records

Advertising

Macapá Weather History for the Previous 24 Hours

Scroll right to see more
 ConditionsComfort  
Time TempWeatherWind HumidityBarometerVisibility
6:00 AM
Sun, Jul 24
79 °FPassing clouds.2 mph100%29.89 "HgN/A
5:00 AM79 °FPassing clouds.6 mph100%29.89 "HgN/A
4:00 AM79 °FPassing clouds.3 mph100%29.89 "HgN/A
3:00 AM81 °FPassing clouds.3 mph84%29.89 "HgN/A
2:00 AM82 °FPassing clouds.9 mph79%29.92 "HgN/A
1:00 AM82 °FPassing clouds.9 mph79%29.92 "HgN/A
12:00 AM82 °FPassing clouds.9 mph79%29.92 "HgN/A
11:00 PM
Sat, Jul 23
82 °FPassing clouds.9 mph79%29.92 "HgN/A
10:00 PM82 °FPassing clouds.12 mph79%29.92 "HgN/A
9:00 PM82 °FPassing clouds.12 mph79%29.89 "HgN/A
8:00 PM82 °FPassing clouds.7 mph66%29.86 "HgN/A
7:00 PM84 °FPassing clouds.7 mph66%29.86 "HgN/A
6:00 PM88 °FPassing clouds.9 mph66%29.83 "HgN/A
5:00 PM91 °FScattered clouds.12 mph52%29.83 "HgN/A
4:00 PM95 °FPassing clouds.12 mph53%29.83 "HgN/A
3:00 PM95 °FPassing clouds.12 mph53%29.83 "HgN/A
2:00 PM95 °FPassing clouds.10 mph53%29.86 "HgN/A
1:00 PM95 °FPassing clouds.10 mph50%29.89 "HgN/A
12:00 PM93 °FScattered clouds.7 mph63%29.92 "HgN/A
11:00 AM91 °FPartly sunny.7 mph63%29.92 "HgN/A
10:00 AM90 °FPartly sunny.12 mph67%29.92 "HgN/A
9:00 AM88 °FPartly sunny.9 mph66%29.92 "HgN/A
8:00 AM82 °FSunny.5 mph79%29.92 "Hg10 mi
7:00 AM77 °FPartly sunny.3 mph100%29.89 "HgN/A
Weather by CustomWeather, © 2016

See weather overviewHow to use our weather pages